Chehalis, WA
on Sunday, January 13, 2013

Sunday
Previous Day Next Day
Daily Summary
 ActualAverage (KOLM)Record (KOLM)
Temperature
Mean Temperature °F 40°F  
Max Temperature 35°F 46°F 57°F (1994)
Min Temperature 21°F 34°F 11°F (1963)
Degree Days
Heating Degree Days 37 25  
Month to date heating degree days 335  
Since 1 July heating degree days 2605  
Cooling Degree Days 0 0  
Month to date cooling degree days 0  
Year to date cooling degree days 0  
Moisture
Dew Point 25°F   
Average Humidity 92    
Maximum Humidity 100    
Minimum Humidity 70    
Precipitation
Precipitation 0.00 in 0.25 in 2.08 in (1970)
Month to date precipitation 3.35  
Year to date precipitation 3.35  
Wind
Wind Speed 1 mph   
Max Wind Speed 6 mph   
Max Gust Speed mph   
Visibility 6 miles   
Events Fog   

Key: T is trace of precipitation, MM is missing value
Source: NWS Daily Summary
Time(PST)TemperatureDew PointHumidity Pressure Visibility Wind DirectionWind SpeedGust SpeedPrecipitationEvents Conditions
12:15 AM 24.8°F 23.0°F 93% 30.45 in 1.8 miles Calm Calm - N/A   Mostly Cloudy
12:35 AM 24.8°F 23.0°F 93% 30.44 in 9.0 miles Calm Calm - N/A   Mostly Cloudy
1:15 AM 24.8°F 23.0°F 93% 30.46 in 8.0 miles Calm Calm - N/A   Overcast
1:35 AM 24.8°F 24.8°F 100% 30.45 in 0.2 miles Calm Calm - N/A Fog Light Freezing Fog
1:55 AM 24.8°F 24.8°F 100% 30.46 in 0.2 miles Calm Calm - N/A Fog Light Freezing Fog
2:15 AM 24.8°F 24.8°F 100% 30.47 in 0.2 miles Calm Calm - N/A Fog Light Freezing Fog
2:35 AM 24.8°F 24.8°F 100% 30.47 in 0.2 miles Calm Calm - N/A Fog Light Freezing Fog
2:55 AM 24.8°F 23.0°F 93% 30.46 in 0.2 miles Calm Calm - N/A Fog Light Freezing Fog
3:15 AM 24.8°F 23.0°F 93% 30.46 in 0.2 miles Calm Calm - N/A Fog Light Freezing Fog
3:35 AM 24.8°F 23.0°F 93% 30.46 in 0.2 miles Calm Calm - N/A Fog Light Freezing Fog
3:55 AM 24.8°F 23.0°F 93% 30.46 in 0.2 miles Calm Calm - N/A Fog Light Freezing Fog
4:15 AM 24.8°F 23.0°F 93% 30.46 in 0.2 miles Calm Calm - N/A Fog Light Freezing Fog
4:35 AM 24.8°F 23.0°F 93% 30.46 in 0.2 miles Calm Calm - N/A Fog Light Freezing Fog
4:55 AM 23.0°F 23.0°F 100% 30.46 in 0.2 miles Calm Calm - N/A Fog Light Freezing Fog
5:15 AM 23.0°F 23.0°F 100% 30.45 in 0.2 miles Calm Calm - N/A Fog Light Freezing Fog
5:35 AM 23.0°F 23.0°F 100% 30.46 in 0.2 miles Calm Calm - N/A Fog Light Freezing Fog
5:55 AM 23.0°F 23.0°F 100% 30.46 in 0.2 miles Calm Calm - N/A Fog Light Freezing Fog
6:15 AM 23.0°F 23.0°F 100% 30.47 in 0.2 miles Calm Calm - N/A Fog Light Freezing Fog
6:35 AM 23.0°F 23.0°F 100% 30.48 in 0.2 miles Calm Calm - N/A Fog Light Freezing Fog
6:55 AM 23.0°F 21.2°F 93% 30.47 in 0.8 miles Calm Calm - N/A   Overcast
7:15 AM 23.0°F 21.2°F 93% 30.48 in 1.8 miles Calm Calm - N/A   Overcast
7:35 AM 23.0°F 21.2°F 93% 30.48 in 5.0 miles South 3.5 mph - N/A   Overcast
7:55 AM 23.0°F 21.2°F 93% 30.49 in 0.5 miles SSW 3.5 mph - N/A Fog Light Freezing Fog
8:15 AM 21.2°F 19.4°F 93% 30.50 in 5.0 miles Calm Calm - N/A   Mostly Cloudy
8:35 AM 21.2°F 19.4°F 93% 30.50 in 8.0 miles SSW 3.5 mph - N/A   Clear
8:55 AM 21.2°F 19.4°F 93% 30.50 in 9.0 miles South 3.5 mph - N/A   Scattered Clouds
9:15 AM 23.0°F 21.2°F 93% 30.49 in 10.0 miles SSW 4.6 mph - N/A   Partly Cloudy
9:35 AM 23.0°F 23.0°F 100% 30.50 in 10.0 miles South 4.6 mph - N/A   Partly Cloudy
9:55 AM 24.8°F 23.0°F 93% 30.49 in 10.0 miles SSW 3.5 mph - N/A   Clear
10:15 AM 24.8°F 24.8°F 100% 30.50 in 10.0 miles Calm Calm - N/A   Clear
10:35 AM 28.4°F 26.6°F 93% 30.51 in 10.0 miles Calm Calm - N/A   Clear
10:55 AM 28.4°F 28.4°F 100% 30.50 in 10.0 miles Calm Calm - N/A   Clear
11:15 AM 28.4°F 28.4°F 100% 30.50 in 10.0 miles Calm Calm - N/A   Clear
11:35 AM 32.0°F 28.4°F 87% 30.49 in 10.0 miles SSW 3.5 mph - N/A   Clear
11:55 AM 32.0°F 28.4°F 87% 30.49 in 10.0 miles SSW 3.5 mph - N/A   Clear
12:15 PM 32.0°F 26.6°F 80% 30.47 in 10.0 miles SW 3.5 mph - N/A   Clear
12:35 PM 32.0°F 26.6°F 80% 30.47 in 10.0 miles SW 3.5 mph - N/A   Clear
12:55 PM 32.0°F 26.6°F 80% 30.48 in 10.0 miles Calm Calm - N/A   Clear
1:15 PM 33.8°F 26.6°F 75% 30.47 in 10.0 miles Calm Calm - N/A   Clear
1:35 PM 35.6°F 26.6°F 70% 30.46 in 10.0 miles Calm Calm - N/A   Clear
2:15 PM 35.6°F 26.6°F 70% 30.47 in 10.0 miles Calm Calm - N/A   Clear
2:35 PM 35.6°F 26.6°F 70% 30.47 in 10.0 miles NNE 5.8 mph - N/A   Clear
2:55 PM 35.6°F 26.6°F 70% 30.47 in 10.0 miles North 4.6 mph - N/A   Clear
3:15 PM 35.6°F 26.6°F 70% 30.47 in 5.0 miles NNE 4.6 mph - N/A   Haze
3:35 PM 35.6°F 26.6°F 70% 30.46 in 6.0 miles NNE 3.5 mph - N/A   Haze
3:55 PM 35.6°F 26.6°F 70% 30.46 in 5.0 miles North 3.5 mph - N/A   Haze
4:15 PM 33.8°F 26.6°F 75% 30.46 in 10.0 miles Calm Calm - N/A   Clear
4:35 PM 32.0°F 26.6°F 80% 30.46 in 9.0 miles Calm Calm - N/A   Clear
4:55 PM 32.0°F 28.4°F 87% 30.46 in 8.0 miles Calm Calm - N/A   Clear
5:15 PM 32.0°F 28.4°F 87% 30.47 in 5.0 miles Calm Calm - N/A   Clear
5:35 PM 30.2°F 28.4°F 93% 30.47 in 10.0 miles Calm Calm - N/A   Clear
5:55 PM 30.2°F 28.4°F 93% 30.48 in 6.0 miles Calm Calm - N/A   Clear
6:15 PM 28.4°F 28.4°F 100% 30.48 in 7.0 miles Calm Calm - N/A   Clear
6:35 PM 28.4°F 28.4°F 100% 30.49 in 7.0 miles Calm Calm - N/A   Clear
6:55 PM 28.4°F 28.4°F 100% 30.50 in 10.0 miles Calm Calm - N/A   Clear
7:15 PM 28.4°F 26.6°F 93% 30.48 in 7.0 miles Calm Calm - N/A   Clear
7:35 PM 26.6°F 26.6°F 100% 30.48 in 7.0 miles Calm Calm - N/A   Clear
7:55 PM 26.6°F 26.6°F 100% 30.48 in 8.0 miles Calm Calm - N/A   Clear
8:35 PM 26.6°F 26.6°F 100% 30.50 in 8.0 miles Calm Calm - N/A   Clear
8:55 PM 26.6°F 26.6°F 100% 30.50 in 5.0 miles Calm Calm - N/A   Clear
9:15 PM 26.6°F 24.8°F 93% 30.50 in 10.0 miles Calm Calm - N/A   Clear
9:35 PM 26.6°F 24.8°F 93% 30.49 in 10.0 miles Calm Calm - N/A   Clear
9:55 PM 26.6°F 24.8°F 93% 30.49 in 9.0 miles Calm Calm - N/A   Partly Cloudy
10:15 PM 26.6°F 24.8°F 93% 30.49 in 9.0 miles Calm Calm - N/A   Mostly Cloudy
10:35 PM 24.8°F 24.8°F 100% 30.50 in 7.0 miles Calm Calm - N/A   Partly Cloudy
10:55 PM 24.8°F 24.8°F 100% 30.51 in 8.0 miles Calm Calm - N/A   Mostly Cloudy
11:15 PM 24.8°F 24.8°F 100% 30.51 in 8.0 miles Calm Calm - N/A   Partly Cloudy
11:35 PM 24.8°F 24.8°F 100% 30.51 in 10.0 miles Calm Calm - N/A   Clear
11:55 PM 24.8°F 24.8°F 100% 30.50 in 9.0 miles Calm Calm - N/A   Mostly Cloudy
Moon Phase
Jan. 13 Jan. 18 Jan. 26 Feb. 03 Feb. 10
Sunrise:07:53 AM (PST) Moon Rise:08:44 AM (PST)1/13
Sunset:04:48 PM (PST) Moon Set:07:46 PM (PST)1/13

Copyright © 2014 The Weather Underground, Inc.